Weather History for Lawton, OK

Change the Weather History Date:

Saturday, December 29, 2012

  Actual Average Record
Temperature  
Mean Temperature 30 °F -  
Max Temperature 46 °F 47 °F 81 °F (1951)
Min Temperature 14 °F 27 °F 4 °F (1983)
Degree Days  
Heating Degree Days 35    
Moisture  
Dew Point 19 °F    
Average Humidity 74    
Maximum Humidity 88    
Minimum Humidity 42    
Precipitation  
Precipitation 0.00 in - - ()
Sea Level Pressure  
Sea Level Pressure 30.39 in    
Wind  
Wind Speed 1 mph (SSE)    
Max Wind Speed 6 mph    
Max Gust Speed -    
Visibility 10 miles    
Events      
Averages and records for this station are not official NWS values.
T = Trace of Precipitation, MM = Missing Value Source: NWS Daily Summary

Daily Weather History Graph

Daily Weather History Graph

Search for Another Location

Airport:

Trip Planner

Search our weather history database for the weather conditions in past years. The results will help you decide how hot, cold, wet, or windy it might be!

Date:

Astronomy

Dec. 29, 2012 Rise Set
Actual Time 7:39 AM CST 5:32 PM CST
Civil Twilight 7:12 AM CST 6:00 PM CST
Nautical Twilight 6:40 AM CST 6:31 PM CST
Astronomical Twilight 6:09 AM CST 7:02 PM CST
Moon 7:02 PM CST (12/29) 8:18 AM CST (12/29)
Length of Visible Light 10h 48m
Length of Day
9h 52m
Full, 98% of the Moon is Illuminated
Dec 29
Full
Jan 4
Last Quarter
Jan 11
New
Jan 18
First Quarter
Jan 26
Full

Hourly Weather History & Observations

Time (CST) Temp. Windchill Dew Point Humidity Pressure Visibility Wind Dir Wind Speed Gust Speed Precip Events Conditions
12:53 AM 18.0 °F - 14.0 °F 84% 30.27 in 10.0 mi Calm Calm - N/A   Clear
1:53 AM 17.1 °F - 14.0 °F 88% 30.28 in 10.0 mi Calm Calm - N/A   Clear
2:53 AM 16.0 °F - 12.0 °F 84% 30.30 in 9.0 mi Calm Calm - N/A   Clear
3:53 AM 19.9 °F 12.1 °F 15.1 °F 81% 30.32 in 10.0 mi North 5.8 mph - N/A   Clear
4:53 AM 15.1 °F - 10.9 °F 84% 30.33 in 9.0 mi Calm Calm - N/A   Clear
6:53 AM 14.0 °F 8.2 °F 10.9 °F 88% 30.39 in 9.0 mi South 3.5 mph - N/A   Clear
7:53 AM 16.0 °F - 12.0 °F 84% 30.41 in 10.0 mi Calm Calm - N/A   Clear
8:53 AM 19.0 °F - 15.1 °F 85% 30.44 in 9.0 mi Calm Calm - N/A   Clear
9:53 AM 24.1 °F 19.7 °F 18.0 °F 77% 30.45 in 10.0 mi SSE 3.5 mph - N/A   Clear
10:53 AM 28.9 °F - 19.9 °F 69% 30.46 in 10.0 mi Calm Calm - N/A   Clear
11:53 AM 35.1 °F - 23.0 °F 61% 30.45 in 10.0 mi Calm Calm - N/A   Clear
12:53 PM 39.0 °F 35.7 °F 24.1 °F 55% 30.43 in 10.0 mi SW 4.6 mph - N/A   Clear
1:53 PM 42.1 °F - 23.0 °F 47% 30.40 in 10.0 mi Calm Calm - N/A   Clear
2:53 PM 45.0 °F 43.5 °F 24.1 °F 44% 30.40 in 10.0 mi SSW 3.5 mph - N/A   Clear
3:53 PM 46.0 °F - 24.1 °F 42% 30.39 in 10.0 mi Calm Calm - N/A   Clear
5:53 PM 39.0 °F 35.7 °F 27.0 °F 62% 30.39 in 10.0 mi SE 4.6 mph - N/A   Clear
6:53 PM 34.0 °F 31.0 °F 26.1 °F 73% 30.41 in 10.0 mi ESE 3.5 mph - N/A   Clear
7:53 PM 28.9 °F - 24.1 °F 82% 30.42 in 10.0 mi Calm Calm - N/A   Clear
8:53 PM 26.1 °F - 21.9 °F 84% 30.42 in 10.0 mi Calm Calm - N/A   Clear
9:53 PM 25.0 °F - 21.0 °F 85% 30.44 in 10.0 mi Calm Calm - N/A   Clear
10:53 PM 24.1 °F - 21.0 °F 88% 30.42 in 10.0 mi Calm Calm - N/A   Clear